Location: Ernsee
(50.8780°N, 12.0389°E)
Time: 12:54:27
(UTC+00:00)

Cosmos 158 Rocket - Pass Details

Date: 20 January 2020
Orbit: 698 x 794 km, 74.0° (Epoch: 16 February)

Event Time Altitude Azimuth Distance (km) Brightness Sun altitude
Rises 06:22:54 0° 211° (SSW) 3,070 7.1 -6.6°
Reaches altitude 10° 06:25:13 10° 215° (SW) 2,158 6.2 -6.2°
Maximum altitude 06:30:03 65° 297° (WNW) 775 3.8 -5.5°
Drops below altitude 10° 06:34:58 10° 20° (NNE) 2,201 6.3 -4.8°
Sets 06:37:21 0° 23° (NNE) 3,136 7.1 -4.5°
